CAPE
0 0 54 33 0 0 0 0 0 0 0 0 0 0 0 0 1 0 177 413 333 535 685 713 675 448 401 371 282 201 167 201 239 384 449 415 326 194 59 0 2 5 4 5 8 10 16 23 8
0 1 36 8 0 0 0 0 0 0 0 0 0 0 0 5 195 219 457 484 475 603 692 687 596 393 396 314 205 64 23 69 153 237 416 457 349 202 55 2 1 4 2 2 2 9 17 5 3
0 13 0 7 0 0 0 0 0 0 0 0 0 5 3 20 265 429 439 566 617 545 630 626 553 439 352 250 89 10 37 35 87 366 284 470 350 201 78 0 6 7 5 1 0 1 0 0 0
0 0 0 7 0 0 0 0 0 0 0 0 0 0 199 401 354 535 651 635 610 485 535 522 509 444 311 156 4 150 25 254 374 455 365 346 228 71 0 0 4 5 6 3 1 0 0 0 0
0 0 16 6 0 0 0 0 0 0 0 0 0 0 148 506 445 672 694 638 552 468 439 464 443 422 253 39 28 271 174 277 289 234 216 176 26 0 0 0 3 4 6 8 4 0 0 0 0
18 3 16 1 4 0 0 0 0 0 0 0 0 0 95 566 644 644 687 600 497 419 450 415 405 362 163 0 156 263 283 224 225 119 139 74 2 0 0 0 3 7 12 3 1 0 0 0 0
21 22 0 11 4 0 0 0 0 0 0 0 0 0 218 676 433 493 517 427 390 397 368 342 328 272 97 0 146 171 280 253 241 186 155 23 0 0 0 0 0 6 10 0 0 0 0 0 0
30 35 14 3 1 0 0 0 0 0 0 0 4 10 22 440 482 296 228 264 341 347 289 220 180 169 122 30 30 119 122 134 209 163 59 0 0 0 0 0 1 3 0 0 0 0 0 0 0
34 27 2 1 3 3 0 0 0 0 0 0 13 83 210 719 435 287 258 204 194 208 184 176 111 97 76 29 7 52 47 74 60 22 0 0 0 0 0 0 0 0 0 0 0 0 0 0 0
1 2 5 5 13 5 1 0 0 0 0 0 0 317 545 791 655 434 300 194 129 109 103 69 70 56 69 63 23 24 1 0 0 0 0 0 0 0 0 0 0 0 0 0 0 0 0 0 0
0 0 0 0 1 0 1 0 0 0 0 0 0 4 953 1047 837 511 299 174 117 106 80 27 12 43 78 19 3 0 0 0 0 0 0 0 0 0 0 0 0 0 0 0 0 0 0 0 0
0 0 1 0 0 0 1 0 0 0 0 0 0 0 24 1134 863 476 276 256 148 45 18 8 1 21 76 47 5 0 0 0 0 0 0 0 0 0 0 0 0 0 0 0 0 0 0 0 0
0 0 0 0 0 0 0 0 3 0 0 0 0 0 0 229 631 461 309 256 162 41 2 0 10 9 26 15 1 0 0 0 0 0 0 0 0 0 0 0 0 0 0 0 0 0 0 0 0
0 0 0 0 0 0 0 0 0 0 0 0 0 0 0 0 354 339 349 234 109 21 0 7 26 13 2 23 2 0 0 0 0 0 0 0 0 0 0 0 0 0 0 0 0 0 0 0 0
0 0 0 0 0 0 0 0 0 0 0 0 0 0 0 0 205 258 556 220 121 38 7 2 24 13 25 15 10 0 0 0 0 0 0 0 0 0 0 0 0 0 0 0 0 0 0 0 0
1 4 0 0 0 0 0 0 0 0 0 0 0 1 0 0 183 221 469 241 79 35 51 15 36 42 48 24 16 0 0 0 0 0 0 0 0 0 0 0 0 0 0 0 0 0 0 0 0
0 0 0 0 0 0 0 0 0 0 0 0 0 1 0 0 203 259 201 395 103 16 8 11 70 64 64 24 0 0 0 0 0 0 0 0 0 0 0 0 0 0 0 0 1 1 5 4 0
0 0 0 0 0 0 0 0 0 0 24 3 0 0 0 0 15 1 183 302 80 11 0 12 85 83 72 53 14 0 0 0 0 0 0 0 0 0 0 0 0 0 0 0 2 10 8 5 0
0 0 0 0 0 0 0 0 0 0 0 32 0 0 0 0 1 0 1 153 107 35 12 2 67 80 86 63 36 4 0 0 0 0 0 0 0 0 0 0 0 0 0 0 1 10 11 5 3
0 0 0 0 0 0 0 0 0 0 1 4 3 0 0 0 0 1 0 0 0 58 41 8 65 103 83 61 48 43 34 1 0 0 0 0 0 0 0 0 0 0 0 0 5 10 6 7 9
0 0 0 0 0 7 0 0 0 0 1 21 13 1 0 0 0 1 1 0 1 0 0 1 10 40 58 25 13 19 48 9 9 1 0 0 0 1 1 0 1 4 7 7 9 11 7 7 8
0 0 0 0 0 1 1 3 0 0 5 14 2 0 0 0 1 3 2 1 1 1 1 0 0 14 25 11 18 27 28 33 14 6 9 8 2 1 1 3 7 11 1 15 19 21 17 17 14
0 0 0 0 0 0 13 4 5 12 7 1 0 0 0 1 2 2 2 1 1 2 1 0 0 0 2 38 27 35 20 46 43 42 54 45 16 7 4 6 23 53 4 28 25 22 20 16 11
0 1 1 2 0 7 0 0 0 0 0 1 0 0 1 0 2 5 4 3 3 2 1 0 0 0 3 0 18 13 30 38 23 21 46 51 66 65 40 15 21 17 27 39 37 31 22 18 6
0 0 0 0 0 0 2 0 0 0 0 0 0 2 2 1 1 3 2 2 3 2 2 2 0 0 2 4 0 0 5 1 5 12 3 14 1 0 2 0 0 0 0 0 1 5 0 0 0
0 0 0 1 0 0 0 0 0 2 0 0 0 2 3 2 2 3 2 3 2 3 3 4 0 0 0 1 8 4 1 1 1 0 0 0 0 0 1 1 0 0 0 0 0 0 0 0 0
0 0 0 0 0 0 0 0 0 1 4 0 0 0 1 2 5 2 1 3 3 0 1 2 3 3 3 0 3 5 2 1 1 3 3 3 4 2 2 2 0 0 2 0 0 1 1 1 1
0 0 0 0 0 0 0 0 0 0 1 2 1 0 2 3 2 1 3 3 2 2 2 2 2 1 3 1 2 3 2 2 3 2 4 4 2 2 1 4 3 3 1 1 1 1 1 0 0
0 0 0 0 0 0 0 0 0 0 0 1 1 1 0 1 0 1 1 1 2 2 1 3 1 1 0 2 1 1 2 1 1 2 1 1 0 1 1 1 1 1 1 1 0 0 0 0 0
0 0 0 0 0 0 0 0 1 0 0 0 1 1 1 0 0 1 1 1 1 2 2 2 2 0 1 1 1 0 0 0 0 0 1 0 2 0 0 0 0 0 0 0 0 0 0 0 0
CIN
-0 -0 -145 -87 -0 -0 -0 -0 -0 -0 -0 -0 -0 -0 -0 -0 -3 -0 -331 -280 -253 -172 -96 -46 -27 -31 -11 -26 -58 -112 -134 -85 -46 -20 -14 -19 -44 -82 -136 -0 -0 -0 -0 -0 -0 -0 -0 -0 -0
-0 -20 -103 -59 -0 -0 -0 -0 -0 -0 -0 -0 -0 -0 -0 -33 -141 -217 -233 -255 -214 -141 -79 -53 -44 -62 -13 -35 -89 -207 -249 -176 -92 -46 -15 -13 -34 -75 -121 -14 -2 -0 -0 -0 -0 -0 -0 -1 -1
-0 -123 -0 -18 -0 -0 -0 -0 -0 -0 -0 -0 -0 -46 -39 -55 -189 -233 -279 -219 -164 -140 -81 -40 -47 -55 -26 -46 -158 -263 -216 -219 -125 -22 -31 -2 -22 -68 -97 -0 -0 -0 -0 -0 -0 -0 -0 -0 -0
-0 -0 -0 -7 -0 -0 -0 -0 -0 -0 -0 -0 -0 -0 -92 -207 -231 -261 -256 -191 -169 -150 -92 -44 -47 -47 -46 -75 -231 -124 -204 -60 -23 -5 -10 -9 -40 -94 -0 -0 -0 -0 -0 -0 -0 -0 -0 -0 -0
-0 -0 -3 -0 -0 -0 -0 -0 -0 -0 -0 -0 -0 -0 -42 -193 -255 -231 -225 -210 -184 -147 -103 -57 -42 -44 -78 -165 -182 -43 -76 -44 -30 -32 -26 -41 -114 -0 -0 -0 -0 -0 -0 -0 -0 -0 -0 -0 -0
-4 -12 -1 -0 -0 -0 -0 -0 -0 -0 -0 -0 -0 -0 -61 -181 -197 -212 -189 -213 -171 -167 -93 -73 -42 -43 -100 -0 -79 -39 -37 -47 -46 -66 -45 -79 -21 -0 -0 -0 -0 -0 -0 -0 -0 -0 -0 -0 -0
-0 -2 -0 -1 -3 -0 -0 -0 -0 -0 -0 -0 -0 -0 -78 -112 -176 -184 -172 -182 -167 -160 -104 -97 -60 -52 -103 -0 -68 -61 -33 -41 -35 -44 -34 -104 -0 -0 -0 -0 -0 -0 -0 -0 -0 -0 -0 -0 -0
-1 -0 -0 -4 -5 -0 -0 -0 -0 -0 -0 -0 -80 -31 -30 -98 -185 -205 -196 -157 -146 -96 -116 -127 -114 -77 -81 -115 -120 -68 -75 -62 -31 -41 -77 -0 -0 -0 -0 -0 -0 -0 -0 -0 -0 -0 -0 -0 -0
-3 -0 -0 -1 -0 -0 -0 -0 -0 -0 -0 -0 -66 -62 -72 -157 -179 -176 -140 -112 -131 -89 -123 -125 -150 -107 -93 -100 -97 -78 -95 -75 -71 -96 -0 -0 -0 -0 -0 -0 -0 -0 -0 -0 -0 -0 -0 -0 -0
-0 -1 -0 -1 -3 -1 -2 -0 -0 -0 -0 -0 -1 -35 -120 -108 -126 -167 -169 -159 -160 -154 -156 -202 -180 -126 -95 -87 -115 -108 -27 -0 -0 -0 -0 -0 -0 -0 -0 -0 -0 -0 -0 -0 -0 -0 -0 -0 -0
-0 -0 -0 -19 -4 -0 -38 -0 -0 -0 -0 -0 -0 -4 -35 -45 -60 -115 -157 -218 -258 -216 -171 -245 -249 -128 -91 -105 -17 -0 -0 -0 -0 -0 -0 -0 -0 -0 -0 -0 -0 -0 -0 -0 -0 -0 -0 -0 -0
-0 -0 -5 -1 -0 -0 -0 -0 -0 -0 -0 -0 -0 -0 -60 -0 -53 -94 -128 -151 -134 -193 -228 -286 -4 -142 -84 -92 -126 -0 -0 -0 -0 -0 -0 -0 -0 -0 -0 -0 -0 -0 -0 -0 -0 -0 -0 -0 -0
-0 -0 -0 -0 -0 -0 -0 -0 -0 -0 -0 -0 -0 -0 -0 -35 -23 -67 -106 -109 -144 -193 -285 -0 -214 -166 -123 -125 -0 -0 -0 -0 -0 -0 -0 -0 -0 -0 -0 -0 -0 -0 -0 -0 -0 -0 -0 -0 -0
-0 -0 -0 -0 -0 -0 -0 -0 -0 -0 -0 -0 -0 -0 -0 -0 -34 -16 -49 -108 -140 -182 -0 -190 -159 -148 -0 -115 -0 -0 -0 -0 -0 -0 -0 -0 -0 -0 -0 -0 -0 -0 -0 -0 -0 -0 -0 -0 -0
-0 -0 -0 -0 -0 -0 -0 -0 -0 -0 -0 -0 -0 -0 -0 -0 -49 -28 -47 -118 -154 -180 -212 -177 -121 -137 -103 -132 -123 -0 -0 -0 -0 -0 -0 -0 -0 -0 -0 -0 -0 -0 -0 -0 -0 -0 -0 -0 -0
-1 -1 -0 -0 -0 -0 -0 -0 -0 -0 -1 -0 -0 -41 -0 -0 -81 -56 -41 -75 -134 -141 -106 -152 -56 -95 -77 -98 -118 -0 -0 -0 -0 -0 -0 -0 -0 -0 -0 -0 -0 -0 -0 -0 -0 -5 -4 -13 -0
-0 -0 -0 -0 -0 -0 -0 -0 -0 -0 -0 -0 -0 -14 -0 -0 -74 -57 -57 -22 -141 -137 -62 -124 -27 -55 -45 -63 -43 -0 -0 -0 -0 -0 -0 -0 -0 -0 -0 -0 -0 -0 -0 -0 -6 -16 -19 -15 -0
-0 -0 -0 -0 -0 -0 -0 -0 -0 -0 -3 -8 -0 -0 -0 -0 -55 -46 -36 -10 -92 -106 -0 -89 -38 -20 -13 -23 -77 -0 -0 -0 -0 -0 -0 -0 -0 -0 -0 -0 -0 -0 -0 -32 -33 -18 -18 -12 -8
-0 -0 -0 -0 -0 -0 -0 -0 -0 -0 -0 -2 -0 -0 -0 -0 -0 -0 -0 -33 -42 -28 -25 -85 -5 -12 -10 -12 -27 -18 -0 -0 -0 -0 -0 -0 -0 -0 -0 -0 -0 -0 -0 -0 -21 -21 -20 -9 -33
-0 -0 -0 -0 -0 -0 -0 -0 -0 -0 -1 -5 -10 -0 -0 -0 -0 -0 -0 -0 -0 -21 -32 -50 -23 -11 -30 -30 -29 -28 -43 -50 -0 -6 -0 -0 -0 -0 -0 -0 -0 -0 -0 -11 -27 -25 -26 -22 -44
-0 -0 -0 -0 -0 -7 -0 -0 -0 -0 -0 -7 -17 -3 -0 -0 -0 -0 -0 -0 -0 -0 -0 -14 -48 -36 -46 -61 -64 -49 -20 -78 -80 -48 -0 -0 -14 -59 -31 -30 -43 -47 -48 -29 -28 -35 -31 -22 -50
-0 -0 -0 -0 -0 -1 -11 -0 -0 -0 -0 -1 -12 -0 -0 -0 -0 -0 -0 -0 -0 -0 -0 -0 -0 -12 -25 -60 -44 -46 -19 -11 -52 -84 -77 -83 -55 -42 -32 -44 -24 -26 -32 -26 -37 -57 -55 -48 -35
-0 -0 -0 -0 -0 -0 -36 -10 -55 -14 -0 -0 -0 -0 -0 -0 -0 -0 -0 -0 -0 -0 -0 -0 -0 -0 -11 -19 -34 -30 -23 -13 -28 -36 -28 -24 -40 -39 -46 -38 -17 -2 -13 -33 -40 -38 -49 -42 -33
-0 -1 -0 -0 -0 -2 -0 -15 -1 -0 -0 -6 -0 -0 -0 -0 -0 -0 -0 -0 -0 -0 -0 -0 -0 -0 -0 -0 -50 -21 -20 -6 -32 -22 -22 -18 -12 -13 -10 -11 -4 -17 -20 -27 -26 -41 -32 -33 -32
-0 -0 -0 -0 -0 -0 -13 -0 -0 -0 -0 -0 -0 -0 -0 -0 -0 -0 -0 -0 -0 -0 -0 -0 -0 -0 -0 -0 -0 -1 -11 -11 -34 -33 -13 -27 -18 -0 -31 -0 -29 -0 -2 -32 -30 -17 -19 -0 -0
-0 -0 -0 -42 -0 -0 -0 -0 -0 -0 -0 -0 -0 -0 -0 -0 -0 -0 -0 -0 -0 -0 -0 -0 -0 -0 -0 -0 -0 -0 -0 -0 -0 -0 -0 -0 -0 -0 -0 -0 -0 -0 -0 -0 -0 -0 -0 -0 -0
-0 -0 -0 -0 -0 -0 -0 -0 -0 -0 -0 -0 -0 -0 -0 -0 -0 -0 -0 -0 -0 -0 -0 -0 -0 -0 -0 -0 -0 -0 -0 -0 -0 -0 -0 -0 -0 -0 -0 -0 -0 -0 -0 -0 -0 -0 -0 -0 -0
-0 -0 -0 -0 -0 -0 -0 -0 -0 -0 -0 -0 -0 -0 -0 -0 -0 -0 -0 -0 -0 -0 -0 -0 -0 -0 -0 -0 -0 -0 -0 -0 -0 -0 -0 -0 -0 -0 -0 -0 -0 -0 -0 -0 -0 -0 -0 -0 -0
-0 -0 -0 -0 -0 -0 -0 -0 -0 -0 -0 -0 -0 -0 -0 -0 -0 -0 -0 -0 -0 -0 -0 -0 -0 -0 -0 -0 -0 -0 -0 -0 -0 -0 -0 -0 -0 -0 -0 -0 -0 -0 -0 -0 -0 -0 -0 -0 -0
-0 -0 -0 -0 -0 -0 -0 -0 -0 -0 -0 -0 -0 -0 -0 -0 -0 -0 -0 -0 -0 -0 -0 -0 -0 -0 -0 -0 -0 -0 -0 -0 -0 -0 -0 -0 -0 -0 -0 -0 -0 -0 -0 -0 -0 -0 -0 -0 -0
Wind_Speed
24 24 18 17 22 25 29 21 18 19 17 16 17 20 28 25 18 22 12 5 3 8 9 13 12 10 7 6 7 6 7 7 5 5 7 10 12 12 12 12 12 13 14 14 14 14 15 15 15
23 20 18 19 28 32 31 19 18 19 20 15 19 24 24 24 17 14 6 2 7 8 8 9 11 10 7 5 6 5 7 8 7 5 5 8 10 11 11 12 12 12 13 13 13 14 14 14 15
22 18 21 25 33 36 32 20 20 26 22 17 22 16 21 23 17 4 12 3 7 7 7 7 9 9 8 5 4 6 7 9 11 9 8 8 9 9 8 9 10 12 12 13 13 13 14 14 15
19 19 24 35 40 37 31 22 21 21 20 18 17 25 14 19 15 4 3 5 7 7 7 8 7 7 7 5 4 5 7 7 9 10 11 10 8 6 7 8 9 10 11 11 12 13 13 13 15
19 22 35 42 46 37 28 28 37 34 27 25 22 22 20 21 12 4 5 6 8 8 7 8 7 7 7 5 5 4 5 6 8 11 12 10 7 5 6 7 8 9 10 10 11 12 12 13 14
26 27 40 53 46 37 34 30 27 32 32 33 26 23 19 20 8 3 6 7 8 8 8 7 7 6 6 5 5 4 4 3 7 10 12 8 5 4 5 6 6 7 8 9 10 11 12 12 14
32 35 49 50 48 44 36 29 31 35 38 36 26 29 23 15 12 4 5 6 10 10 9 8 8 7 6 5 5 5 5 5 5 7 10 8 5 3 4 5 5 6 7 8 10 11 12 13 14
30 36 51 54 54 53 35 34 31 32 37 29 23 26 24 15 8 6 5 7 10 12 11 9 8 9 9 7 6 6 6 6 5 7 8 8 4 4 5 6 5 5 6 8 9 10 11 13 14
27 43 55 53 50 45 33 38 33 32 38 34 29 28 28 12 9 9 8 8 11 12 12 12 10 12 11 9 7 7 7 6 4 4 5 5 3 3 4 5 5 5 6 7 9 10 11 12 13
36 49 54 43 39 43 41 44 37 36 37 38 34 28 23 12 12 11 11 10 13 14 13 14 13 14 12 11 9 7 6 4 3 1 1 2 3 3 4 5 4 4 6 7 9 10 11 13 13
39 56 49 45 40 37 40 41 38 40 44 35 34 32 23 14 15 13 13 12 15 14 14 14 14 14 15 14 11 9 8 6 4 2 1 1 2 3 3 4 4 5 6 8 9 10 12 13 13
49 49 46 46 44 42 38 38 40 41 42 33 31 29 28 23 17 14 12 14 14 15 14 14 14 16 16 15 14 12 10 7 5 3 2 1 2 2 2 2 3 5 7 7 9 11 12 13 13
49 48 47 46 50 46 46 46 42 50 43 40 42 38 34 37 25 19 17 16 17 16 15 16 15 16 17 16 16 14 12 9 6 4 3 3 2 2 3 4 5 5 6 7 9 11 12 12 13
41 42 47 46 49 49 50 51 44 43 37 38 37 43 37 39 35 26 19 17 16 16 17 18 17 16 17 17 16 15 13 11 7 6 4 2 1 2 3 4 5 6 6 8 9 10 11 12 13
45 55 52 50 47 47 42 57 62 45 48 41 41 40 36 38 36 31 20 18 17 17 16 18 18 19 17 17 17 16 14 13 10 7 5 4 3 1 1 2 4 4 6 8 9 10 11 11 12
41 46 59 49 46 44 41 68 57 39 46 49 42 42 40 36 37 34 26 22 16 18 17 19 21 19 18 18 18 17 16 14 13 10 8 6 4 3 2 2 2 4 6 6 7 8 9 12 13
43 55 53 51 44 43 48 62 55 50 48 50 47 43 44 37 36 34 31 22 17 20 23 20 25 22 18 18 18 17 17 16 15 12 10 7 6 4 4 4 3 3 3 4 6 8 10 11 13
41 47 53 55 44 46 54 60 48 43 42 46 46 44 41 40 33 29 28 24 19 18 21 23 24 20 19 18 19 18 18 17 15 13 11 8 7 5 5 4 3 2 3 4 6 8 9 10 11
32 40 47 47 48 48 52 59 57 52 45 46 44 44 43 35 31 28 25 23 24 18 27 23 21 21 20 19 18 17 17 16 15 14 12 10 9 7 6 5 4 3 3 4 5 8 8 9 12
31 37 46 46 45 44 51 55 50 51 50 48 45 43 39 35 31 27 23 21 21 21 22 22 22 21 21 21 19 21 20 19 16 16 15 13 11 9 8 8 7 5 5 5 5 6 9 11 10
19 36 44 45 37 45 44 54 54 50 46 42 43 42 38 36 30 28 21 20 22 22 25 26 22 22 21 22 21 21 21 20 18 18 16 14 12 11 10 9 8 7 6 5 4 4 6 8 11
38 36 41 41 39 46 42 53 53 50 46 43 39 38 37 34 30 28 23 19 19 24 30 24 29 29 24 22 22 22 20 22 20 19 19 18 15 12 12 11 11 10 10 9 7 8 9 10 12
30 35 43 38 41 39 37 45 44 42 47 40 36 33 35 32 31 24 23 21 20 21 23 26 27 34 32 31 25 24 25 23 22 22 17 15 15 17 17 15 16 20 17 16 14 9 10 12 14
29 28 36 35 36 40 42 46 41 43 44 40 35 32 31 28 27 25 23 22 20 20 22 22 23 28 31 30 28 26 28 22 26 25 20 19 18 19 20 19 17 16 19 17 15 13 13 12 15
33 30 23 29 30 36 33 41 32 36 37 34 33 31 31 25 25 23 18 18 18 16 18 19 18 26 21 22 24 23 18 20 21 23 22 19 18 20 17 13 14 15 12 15 14 14 15 15 16
31 32 23 22 31 26 26 29 25 27 23 27 26 27 25 21 14 19 16 17 16 16 17 15 13 19 23 20 22 19 21 14 17 15 11 15 16 14 12 11 12 11 12 13 13 14 16 18 19
25 29 26 18 23 18 28 20 16 19 23 25 25 25 24 22 21 13 14 13 15 15 16 18 17 15 19 20 24 19 20 19 19 11 12 15 15 12 11 10 10 12 14 14 14 15 16 16 18
20 17 20 21 25 19 20 22 21 20 25 23 25 23 22 19 16 17 17 14 14 12 13 12 11 13 12 12 15 12 8 13 14 10 11 11 9 11 10 10 14 16 15 16 15 16 15 14 15
11 14 15 13 14 21 28 22 18 18 21 23 21 21 18 17 13 13 11 10 11 11 10 11 13 12 12 13 12 12 10 9 13 15 12 10 11 12 14 15 18 18 17 17 18 12 12 14 16
7 9 10 14 10 14 23 21 11 11 14 16 20 19 20 16 14 13 13 12 12 12 12 13 12 12 14 14 14 14 13 12 11 10 10 10 11 11 13 14 15 14 15 15 12 15 15 16 16
Wind_Direction
299 298 302 300 281 279 272 283 286 295 293 273 266 274 267 277 272 268 303 260 168 146 140 132 127 120 113 100 90 82 82 83 82 78 80 88 91 84 69 57 47 45 47 48 47 50 49 42 28
296 299 299 290 271 268 271 278 278 285 282 290 272 277 270 266 280 287 284 284 148 155 155 141 131 124 119 108 93 81 83 91 95 94 92 95 94 85 72 63 53 46 46 48 49 54 48 34 23
295 294 282 276 266 262 269 278 279 276 281 285 283 305 277 267 279 313 285 160 155 166 177 165 138 128 122 117 96 88 86 90 104 107 109 105 100 87 66 50 46 46 49 48 48 50 47 33 21
290 285 280 266 262 264 263 276 279 282 284 284 295 283 299 278 282 299 136 162 166 172 184 168 156 137 129 124 111 98 92 86 88 100 112 108 100 79 58 47 45 44 47 47 44 43 39 29 22
283 277 266 264 260 265 267 268 262 264 273 271 293 283 285 274 290 132 156 169 170 173 188 183 175 154 139 132 128 110 100 88 86 93 103 104 94 68 50 40 40 42 47 42 38 35 31 25 23
269 269 262 257 260 264 264 263 271 265 267 267 281 285 285 279 273 182 172 181 193 189 180 197 188 180 161 150 143 126 110 99 96 99 99 99 86 57 31 20 24 30 40 42 33 26 22 22 18
264 261 258 260 260 260 260 262 264 263 260 261 278 280 280 272 266 232 195 199 222 207 203 211 212 203 192 171 161 138 117 110 102 100 101 97 81 39 26 22 6 22 29 33 33 27 22 13 12
268 265 260 257 256 258 262 260 264 264 262 270 278 275 275 263 245 240 225 216 209 218 209 208 215 217 221 206 179 147 128 118 113 104 98 93 73 61 43 41 29 29 32 30 22 17 11 10 8
271 259 256 256 258 259 265 260 261 264 262 264 269 273 275 254 224 240 237 226 211 216 216 221 219 225 223 215 190 164 143 128 123 110 96 80 43 43 24 22 26 18 19 16 15 10 6 3 360
260 257 257 262 266 264 263 258 260 261 261 258 265 271 276 239 220 221 223 209 200 208 210 221 222 225 219 219 197 193 187 195 187 184 90 28 38 35 25 24 16 2 357 358 357 356 356 350 352
264 257 259 264 266 273 266 261 256 255 254 253 258 264 265 242 233 225 233 210 195 201 214 217 221 219 219 217 214 210 216 208 211 199 249 319 345 349 353 2 351 346 341 334 338 345 341 346 353
264 262 263 263 266 267 268 263 259 254 253 254 255 261 263 249 235 224 229 224 204 208 214 216 219 216 219 220 219 217 219 217 217 211 228 287 309 322 331 350 342 336 335 347 349 347 345 350 353
265 264 264 264 261 265 265 260 259 254 255 251 252 254 261 249 249 243 243 237 227 217 211 218 213 211 218 219 223 222 224 223 215 213 234 268 281 298 301 298 307 317 329 339 344 344 347 349 348
269 268 265 264 260 260 259 256 258 250 255 250 251 247 257 250 249 253 244 237 227 220 213 217 215 213 218 222 222 223 223 230 221 226 217 213 248 295 299 295 296 306 321 333 338 346 345 346 354
268 262 262 260 259 257 257 251 244 251 250 250 248 246 253 253 249 252 244 237 226 219 214 206 212 219 216 221 222 223 228 232 229 224 228 226 232 272 325 319 311 314 326 327 335 341 343 351 349
265 261 253 255 255 253 249 243 243 254 245 244 249 245 248 257 251 251 253 247 235 231 219 213 219 219 218 219 223 228 231 232 238 236 246 241 231 242 270 297 326 322 323 334 343 346 348 341 344
261 254 251 252 252 252 242 244 246 249 247 241 243 244 244 255 254 253 251 243 233 242 225 221 220 219 214 220 226 229 231 235 242 241 247 231 233 239 267 280 289 316 334 340 339 337 338 343 342
259 253 250 248 248 247 244 242 245 247 243 239 241 242 245 250 253 255 253 244 230 226 230 226 224 217 216 222 228 232 235 238 241 241 243 232 243 234 257 276 282 292 317 327 331 334 338 342 346
270 257 251 249 246 248 246 241 240 241 246 237 238 237 241 248 253 251 251 248 240 230 237 225 219 217 218 219 215 218 225 231 238 243 243 236 241 239 246 265 268 274 293 316 324 329 337 342 337
268 259 250 249 247 247 243 239 240 240 242 237 236 235 237 243 248 248 252 247 247 244 236 227 223 219 219 223 225 233 234 237 235 244 247 244 243 243 251 261 271 273 284 299 314 328 328 326 334
243 256 247 244 247 246 240 239 235 237 237 235 236 235 234 238 245 245 249 250 251 250 247 231 221 222 221 224 228 234 238 240 240 245 248 248 245 244 254 258 267 268 271 279 293 314 318 328 330
213 206 244 240 241 235 229 230 229 229 229 231 231 230 230 238 244 247 247 253 255 256 250 254 241 239 230 219 224 224 227 236 244 245 251 253 252 252 257 263 270 270 275 277 278 296 310 319 321
202 205 219 230 228 231 227 226 226 223 224 225 223 226 225 233 238 243 249 257 268 273 275 268 276 265 235 233 231 234 238 249 249 249 247 249 255 261 266 271 277 274 276 284 284 298 303 309 313
181 177 185 215 228 234 227 220 224 219 221 222 222 224 227 230 243 249 255 261 271 283 284 287 279 268 255 243 241 241 247 250 247 252 252 255 261 264 268 272 279 285 282 288 290 298 302 307 309
184 173 209 222 226 227 224 217 233 231 224 217 218 223 226 236 242 248 255 262 270 281 292 290 303 260 258 254 248 240 243 247 252 249 256 256 261 268 270 271 280 283 295 290 300 307 306 306 306
172 181 194 228 215 218 211 218 233 225 215 213 217 219 224 229 246 256 260 263 271 274 290 294 308 268 267 262 261 256 256 257 255 255 260 261 258 268 276 272 283 294 303 306 311 314 310 310 308
178 185 205 235 209 223 215 217 238 223 214 211 216 220 228 235 240 268 269 269 271 276 287 279 304 296 272 272 259 270 266 269 266 262 277 278 283 280 275 276 281 300 308 307 309 311 313 315 314
212 229 215 218 217 219 204 212 229 217 209 213 215 220 227 232 242 262 265 281 282 294 298 303 303 308 309 303 263 271 283 285 282 289 306 299 296 282 281 281 288 294 300 298 310 309 314 319 326
249 254 238 233 224 219 203 210 237 215 213 215 218 220 227 231 237 253 272 289 293 296 308 303 313 318 326 292 306 321 324 328 315 307 312 304 291 298 295 299 292 295 304 306 307 318 318 325 330
250 253 257 225 230 210 205 213 244 228 222 220 224 224 226 234 244 261 274 276 285 294 298 307 307 316 301 307 301 307 315 327 339 333 323 322 302 321 317 312 311 311 314 315 317 318 325 327 331